Year,Month,Day,Hour,Minute,Value (Times are PST for temperature in C)
2017,11,23,12,35,10.70
2017,11,23,12,36,10.70
2017,11,23,12,37,10.70
2017,11,23,12,38,10.80
2017,11,23,12,39,10.80
2017,11,23,12,40,10.80
2017,11,23,12,41,10.90
2017,11,23,12,42,10.90
2017,11,23,12,43,10.90
2017,11,23,12,44,10.90
2017,11,23,12,45,11.00
2017,11,23,12,46,11.00
2017,11,23,12,47,11.00
2017,11,23,12,48,11.00
2017,11,23,12,49,11.00
2017,11,23,12,50,11.00
2017,11,23,12,51,11.00
2017,11,23,12,52,11.00
2017,11,23,12,53,11.10
2017,11,23,12,54,11.10
2017,11,23,12,55,11.20
2017,11,23,12,56,11.20
2017,11,23,12,57,11.30
2017,11,23,12,58,11.30
2017,11,23,12,59,11.40
2017,11,23,13,00,11.40
2017,11,23,13,01,11.40
2017,11,23,13,02,11.50
2017,11,23,13,03,11.50
2017,11,23,13,04,11.60
2017,11,23,13,05,11.60
2017,11,23,13,06,11.60
2017,11,23,13,07,11.60
2017,11,23,13,08,11.60
2017,11,23,13,09,11.60
2017,11,23,13,10,11.60
2017,11,23,13,11,11.60
2017,11,23,13,12,11.70
2017,11,23,13,13,11.70
2017,11,23,13,14,11.70
2017,11,23,13,15,11.70
2017,11,23,13,16,11.70
2017,11,23,13,17,11.70
2017,11,23,13,18,11.70
2017,11,23,13,19,11.70
2017,11,23,13,20,11.70
2017,11,23,13,21,11.70
2017,11,23,13,22,11.70
2017,11,23,13,23,11.80
2017,11,23,13,24,11.80
2017,11,23,13,25,11.80
2017,11,23,13,26,11.90
2017,11,23,13,27,11.80
2017,11,23,13,28,11.90
2017,11,23,13,29,11.90
2017,11,23,13,30,11.90
2017,11,23,13,31,11.90
2017,11,23,13,32,11.90
2017,11,23,13,33,11.80
2017,11,23,13,34,11.80
2017,11,23,13,35,11.80
2017,11,23,13,36,11.80
2017,11,23,13,37,11.90
2017,11,23,13,38,11.90
2017,11,23,13,39,11.90
2017,11,23,13,40,11.90
2017,11,23,13,41,11.90
2017,11,23,13,42,11.90
2017,11,23,13,43,11.90
2017,11,23,13,44,11.90
2017,11,23,13,45,11.90
2017,11,23,13,46,11.90
2017,11,23,13,47,11.90
2017,11,23,13,48,11.90
2017,11,23,13,49,11.90
2017,11,23,13,50,11.90
2017,11,23,13,51,11.90
2017,11,23,13,52,11.90
2017,11,23,13,53,11.90
2017,11,23,13,54,11.90
2017,11,23,13,55,11.90
2017,11,23,13,56,11.90
2017,11,23,13,57,11.90
2017,11,23,13,58,11.90
2017,11,23,13,59,11.90
2017,11,23,14,00,12.00
2017,11,23,14,01,12.00
2017,11,23,14,02,11.90
2017,11,23,14,03,11.90
2017,11,23,14,04,11.90
2017,11,23,14,05,11.90
2017,11,23,14,06,11.80
2017,11,23,14,07,11.80
2017,11,23,14,08,11.70
2017,11,23,14,09,11.70
2017,11,23,14,10,11.60
2017,11,23,14,11,11.60
2017,11,23,14,12,11.60
2017,11,23,14,13,11.50
2017,11,23,14,14,11.50
2017,11,23,14,15,11.50
2017,11,23,14,16,11.40
2017,11,23,14,17,11.40
2017,11,23,14,18,11.40
2017,11,23,14,19,11.40
2017,11,23,14,20,11.30
2017,11,23,14,21,11.30
2017,11,23,14,22,11.30
2017,11,23,14,23,11.30
2017,11,23,14,24,11.30
2017,11,23,14,25,11.30
2017,11,23,14,26,11.30
2017,11,23,14,27,11.20
2017,11,23,14,28,11.30
2017,11,23,14,29,11.30
2017,11,23,14,30,11.30
2017,11,23,14,31,11.30
2017,11,23,14,32,11.30
2017,11,23,14,33,11.30
2017,11,23,14,34,11.30
2017,11,23,14,35,11.30
2017,11,23,14,36,11.30
2017,11,23,14,37,11.30
2017,11,23,14,38,11.40
2017,11,23,14,39,11.40
2017,11,23,14,40,11.50
2017,11,23,14,41,11.60
2017,11,23,14,42,11.60
2017,11,23,14,43,11.70
2017,11,23,14,44,11.70
2017,11,23,14,45,11.70
2017,11,23,14,46,11.70
2017,11,23,14,47,11.70
2017,11,23,14,48,11.70
2017,11,23,14,49,11.70
2017,11,23,14,50,11.70
2017,11,23,14,51,11.70
2017,11,23,14,52,11.70
2017,11,23,14,53,11.70
2017,11,23,14,54,11.70
2017,11,23,14,55,11.60
2017,11,23,14,56,11.50
2017,11,23,14,57,11.40
2017,11,23,14,58,11.40
2017,11,23,14,59,11.30
2017,11,23,15,00,11.30
2017,11,23,15,01,11.20
2017,11,23,15,02,11.20
2017,11,23,15,03,11.10
2017,11,23,15,04,11.10
2017,11,23,15,05,11.10
2017,11,23,15,06,11.00
2017,11,23,15,07,10.90
2017,11,23,15,08,10.90
2017,11,23,15,09,10.90
2017,11,23,15,10,10.80
2017,11,23,15,11,10.80
2017,11,23,15,12,10.80
2017,11,23,15,13,10.70
2017,11,23,15,14,10.70
2017,11,23,15,15,10.70
2017,11,23,15,16,10.70
2017,11,23,15,17,10.60
2017,11,23,15,18,10.60
2017,11,23,15,19,10.60
2017,11,23,15,20,10.60
2017,11,23,15,21,10.60
2017,11,23,15,22,10.60
2017,11,23,15,23,10.60
2017,11,23,15,24,10.50
2017,11,23,15,25,10.50
2017,11,23,15,26,10.50
2017,11,23,15,27,10.40
2017,11,23,15,28,10.40
2017,11,23,15,29,10.40
2017,11,23,15,30,10.40
2017,11,23,15,31,10.40
2017,11,23,15,32,10.40
2017,11,23,15,33,10.40
2017,11,23,15,34,10.40
2017,11,23,15,35,10.40
2017,11,23,15,36,10.40
2017,11,23,15,37,10.40
2017,11,23,15,38,10.40
2017,11,23,15,39,10.40
2017,11,23,15,40,10.40
2017,11,23,15,41,10.30
2017,11,23,15,42,10.30
2017,11,23,15,43,10.30
2017,11,23,15,44,10.20
2017,11,23,15,45,10.20
2017,11,23,15,46,10.20
2017,11,23,15,47,10.20
2017,11,23,15,48,10.20
2017,11,23,15,49,10.20
2017,11,23,15,50,10.20
2017,11,23,15,51,10.20
2017,11,23,15,52,10.20
2017,11,23,15,53,10.20
2017,11,23,15,54,10.30
2017,11,23,15,55,10.30
2017,11,23,15,56,10.30
2017,11,23,15,57,10.30
2017,11,23,15,58,10.30
2017,11,23,15,59,10.30
2017,11,23,16,00,10.30
2017,11,23,16,01,10.40
2017,11,23,16,02,10.40
2017,11,23,16,03,10.40
2017,11,23,16,04,10.40
2017,11,23,16,05,10.40
2017,11,23,16,06,10.40
2017,11,23,16,07,10.40
2017,11,23,16,08,10.30
2017,11,23,16,09,10.30
2017,11,23,16,10,10.30
2017,11,23,16,11,10.30
2017,11,23,16,12,10.30
2017,11,23,16,13,10.30
2017,11,23,16,14,10.30
2017,11,23,16,15,10.30
2017,11,23,16,16,10.30
2017,11,23,16,17,10.30
2017,11,23,16,18,10.30
2017,11,23,16,19,10.30
2017,11,23,16,20,10.30
2017,11,23,16,21,10.30
2017,11,23,16,22,10.30
2017,11,23,16,23,10.20
2017,11,23,16,24,10.20
2017,11,23,16,25,10.20
2017,11,23,16,26,10.20
2017,11,23,16,27,10.20
2017,11,23,16,28,10.20
2017,11,23,16,29,10.10
2017,11,23,16,30,10.10
2017,11,23,16,31,10.10
2017,11,23,16,32,10.10
2017,11,23,16,33,10.10
2017,11,23,16,34,10.10
2017,11,23,16,35,10.10
2017,11,23,16,36,10.00
2017,11,23,16,37,10.00
2017,11,23,16,38,10.00
2017,11,23,16,39,10.00
2017,11,23,16,40,10.00
2017,11,23,16,41,10.00
2017,11,23,16,42,10.00
2017,11,23,16,43,10.00
2017,11,23,16,44,10.00
2017,11,23,16,45,9.90
2017,11,23,16,46,9.90
2017,11,23,16,47,10.00
2017,11,23,16,48,10.00
2017,11,23,16,49,10.00
2017,11,23,16,50,10.00
2017,11,23,16,51,10.00
2017,11,23,16,52,10.10
2017,11,23,16,53,10.10
2017,11,23,16,54,10.10
2017,11,23,16,55,10.10
2017,11,23,16,56,10.10
2017,11,23,16,57,10.10
2017,11,23,16,58,10.10
2017,11,23,16,59,10.10
2017,11,23,17,00,10.10
2017,11,23,17,01,10.10
2017,11,23,17,02,10.00
2017,11,23,17,03,10.00
2017,11,23,17,04,10.00
2017,11,23,17,05,10.10
2017,11,23,17,06,10.10
2017,11,23,17,07,10.00
2017,11,23,17,08,10.00
2017,11,23,17,09,10.00
2017,11,23,17,10,10.00
2017,11,23,17,11,10.00
2017,11,23,17,12,10.00
2017,11,23,17,13,10.00
2017,11,23,17,14,10.00
2017,11,23,17,15,10.00
2017,11,23,17,16,10.00
2017,11,23,17,17,10.00
2017,11,23,17,18,9.90
2017,11,23,17,19,9.90
2017,11,23,17,20,9.90
2017,11,23,17,21,9.90
2017,11,23,17,22,9.90
2017,11,23,17,23,9.90
2017,11,23,17,24,9.90
2017,11,23,17,25,9.90
2017,11,23,17,26,9.90
2017,11,23,17,27,9.90
2017,11,23,17,28,9.90
2017,11,23,17,29,9.90
